Snowfall_Accumulation
0.0 0.0 0.0 0.0 0.0 0.0 0.0 0.0 0.0 0.0 0.0 0.0 0.0 0.0 0.0 0.0 0.0 0.0 0.0 0.0 0.0 0.0 0.0 0.0 0.0 0.0 0.0 0.0 0.0 0.0 0.0 0.0 2.2 0.0 0.0 0.0 0.0 0.0 0.0 0.0 0.0 0.0 0.0
0.0 0.0 0.0 0.0 0.0 0.0 0.0 0.0 0.0 0.0 0.0 0.0 0.0 0.0 0.0 0.0 0.0 0.0 0.0 0.0 0.0 0.0 0.0 0.0 0.0 0.0 0.0 0.0 0.0 0.0 0.0 0.0 0.4 0.6 0.0 0.0 0.0 0.0 0.0 0.0 0.0 0.0 0.0
0.0 0.0 0.0 0.0 0.0 0.0 0.0 0.0 0.0 0.0 0.0 0.0 0.0 0.0 0.0 0.0 0.0 0.0 0.0 0.0 0.0 0.0 0.0 0.0 0.0 0.0 0.0 0.0 0.0 0.0 0.0 0.0 0.0 0.5 0.2 0.0 0.0 0.0 0.0 0.0 0.0 0.0 0.0
0.0 0.0 0.0 0.0 0.0 0.0 0.0 0.0 0.0 0.0 0.0 0.0 0.0 0.0 0.0 0.0 0.0 0.0 0.0 0.0 0.0 0.0 0.0 0.0 0.0 0.0 0.0 0.0 0.1 0.2 0.1 0.3 0.2 0.4 0.1 0.0 0.0 0.0 0.0 0.0 0.1 0.0 0.1
0.0 0.0 0.0 0.0 0.0 0.0 0.0 0.0 0.0 0.0 0.0 0.0 0.0 0.0 0.0 0.0 0.0 0.0 0.0 0.0 0.0 0.0 0.0 0.0 0.0 nan nan nan 0.0 0.1 0.3 0.3 0.3 0.6 0.4 0.1 0.0 0.0 0.0 0.0 0.2 0.2 0.0
0.0 0.0 0.0 0.0 0.0 0.0 0.0 0.0 0.0 0.0 0.0 0.0 0.0 0.0 0.0 0.0 nan nan 0.0 0.1 0.0 0.0 0.1 0.0 0.0 0.0 0.0 nan nan nan nan 0.2 1.3 1.1 0.7 0.5 0.0 0.0 0.0 0.1 0.7 1.4 4.6
0.0 0.0 0.0 0.0 0.0 0.0 0.0 0.0 0.0 0.0 0.0 0.0 0.0 0.0 0.0 0.0 nan nan nan 0.1 0.1 0.0 0.0 0.0 0.0 0.0 nan 0.0 nan nan nan nan nan 0.0 0.4 0.1 0.1 0.0 0.1 0.6 0.5 2.0 2.6
0.0 0.0 0.0 0.0 0.0 0.0 0.0 0.0 0.0 0.0 0.0 0.0 0.0 0.0 0.0 0.0 nan nan nan 0.1 0.1 0.0 0.0 0.0 0.0 0.0 0.0 0.0 0.0 0.2 0.1 0.0 0.0 0.0 0.0 0.0 0.0 0.0 0.2 0.4 0.6 0.4 0.1
0.0 0.0 0.0 0.0 0.0 0.0 0.0 0.0 0.0 0.0 0.0 0.0 0.0 0.0 0.0 0.0 nan nan 0.1 0.2 0.1 0.0 0.0 0.0 0.0 0.0 nan nan 0.1 0.2 0.0 0.0 nan nan nan nan nan nan nan 0.0 0.8 2.2 2.1
0.0 0.0 0.0 0.0 0.0 0.0 0.0 0.0 0.0 0.0 0.0 0.0 0.0 0.0 nan 0.0 nan nan nan 0.6 0.2 0.3 0.0 0.0 nan 0.0 nan nan 0.0 0.1 0.3 0.0 0.1 0.0 0.0 0.0 nan nan nan 0.0 0.3 4.7 5.3
0.0 0.0 0.0 0.1 0.1 0.0 0.0 0.0 0.0 0.1 0.0 0.0 0.0 0.0 0.0 0.0 0.0 nan nan 0.3 0.4 0.5 0.2 0.0 0.0 nan nan nan nan 0.0 0.1 0.0 0.1 0.1 0.1 0.0 0.0 0.1 0.1 0.0 0.0 0.6 4.3
0.1 0.1 0.1 0.1 0.0 0.0 0.1 0.2 0.1 0.1 0.6 0.2 0.3 0.1 0.0 0.0 nan nan nan nan nan 1.1 0.3 0.0 0.0 nan nan nan nan nan nan nan 0.5 0.7 0.6 0.5 0.4 0.4 0.3 0.2 0.0 0.1 0.1
0.2 0.2 0.2 0.1 0.1 0.3 0.5 0.4 1.0 0.3 1.2 1.2 0.9 0.7 0.4 0.0 0.0 nan nan nan nan 0.4 0.0 0.0 nan nan nan nan nan nan nan 0.3 1.1 1.9 1.2 1.1 0.9 0.7 0.2 0.5 0.1 0.1 0.1
0.5 0.5 0.5 0.7 1.0 0.7 0.6 0.8 1.9 1.6 2.3 1.3 1.6 2.1 1.4 0.9 0.6 0.5 0.6 0.6 nan 0.3 nan 0.4 nan 0.0 nan nan 0.3 0.4 0.3 0.2 0.9 1.3 1.7 1.0 0.8 1.5 1.4 0.7 2.1 1.3 5.4
1.2 1.7 2.4 2.0 1.9 2.1 1.8 2.9 4.6 1.9 4.0 9.6 4.2 3.5 4.0 3.2 1.6 0.9 2.5 1.6 1.0 0.8 nan 1.8 2.0 1.5 1.6 1.8 1.2 0.7 0.7 0.7 1.4 1.4 2.0 2.1 1.5 1.5 1.9 1.5 2.2 3.1 7.5
5.1 4.6 4.6 5.1 4.7 4.3 5.0 6.7 nan nan nan nan nan 4.0 3.4 nan nan nan nan nan nan nan 6.2 5.6 5.4 4.6 4.0 3.0 2.3 2.0 1.4 1.3 1.3 1.9 2.7 3.0 4.2 4.3 4.6 4.3 3.5 4.7 9.5
6.8 7.0 6.9 5.7 6.3 6.6 6.6 5.5 8.1 4.2 nan nan nan nan nan nan nan nan nan nan nan nan 6.8 6.7 7.0 4.9 5.2 5.0 4.1 2.9 3.3 1.7 0.8 3.1 5.4 6.5 7.3 7.3 6.5 6.5 6.3 6.2 9.3
6.5 nan 6.6 6.8 6.4 7.0 6.6 6.2 4.7 5.4 7.7 7.2 nan nan nan nan nan nan nan nan 4.5 nan 5.2 5.8 6.9 6.9 6.3 5.9 5.1 4.4 3.6 3.1 4.1 5.2 6.9 8.3 9.7 11.6 11.2 11.1 8.5 11.6 12.4
5.4 6.6 6.7 7.0 6.4 6.7 6.8 6.5 6.0 6.4 6.2 6.2 5.5 3.9 nan nan nan nan nan 4.3 5.1 5.0 5.6 6.3 5.6 6.5 6.5 5.6 5.0 6.2 5.0 5.2 6.0 8.6 7.9 10.2 9.5 12.0 11.0 8.9 8.9 6.4 nan
5.3 nan 6.2 7.0 6.5 6.6 6.8 7.0 8.0 7.0 7.1 5.3 5.3 5.6 6.4 4.6 4.4 4.1 3.9 4.7 5.9 5.4 5.8 5.8 4.6 5.1 5.7 5.9 6.4 5.7 6.6 6.2 6.1 6.1 6.3 8.1 7.8 9.9 11.2 9.7 7.2 10.5 9.3
4.4 5.2 nan 5.3 6.5 6.9 6.9 7.5 6.4 6.6 6.9 6.8 7.0 4.5 nan 5.6 8.0 6.3 5.9 6.2 6.1 6.0 7.2 6.2 5.4 5.2 5.9 7.0 7.1 7.4 6.2 5.9 5.0 6.2 7.6 7.9 8.7 12.8 6.2 6.4 6.8 7.2 9.2
3.7 4.3 5.5 6.5 5.8 6.5 7.4 6.0 6.6 6.8 7.1 8.1 7.3 5.0 nan 5.7 5.6 6.2 6.3 6.3 6.2 6.0 6.6 7.8 7.0 6.3 7.4 10.1 9.4 10.4 9.4 8.6 7.4 8.6 8.5 8.7 8.3 7.8 6.5 7.0 7.7 9.7 10.4
4.5 5.5 6.4 7.7 6.9 nan 6.2 5.8 6.8 6.4 7.0 6.3 5.6 5.7 6.1 5.2 5.5 6.1 6.6 6.3 6.2 6.8 6.3 7.4 8.6 8.0 5.9 7.8 8.2 10.5 12.5 8.5 7.0 7.5 12.0 9.5 8.9 7.1 6.7 9.7 9.2 10.7 9.1
5.2 6.3 6.8 6.8 6.5 7.2 6.4 7.3 6.4 nan 5.8 6.7 6.1 6.2 6.3 5.6 6.4 6.7 6.5 7.4 6.6 7.8 6.6 8.0 8.2 7.9 7.4 8.4 6.0 6.1 7.1 6.9 7.7 8.9 9.1 13.6 11.6 6.9 7.9 10.0 9.2 9.9 10.6
5.8 7.5 8.3 8.1 7.8 7.7 7.3 6.0 6.0 5.7 6.5 6.1 7.3 6.9 6.2 6.2 6.8 7.0 6.9 7.7 8.2 8.3 6.8 6.8 7.6 7.8 7.4 8.0 7.6 6.2 5.1 nan 5.9 2.5 7.5 7.6 8.5 8.6 10.3 9.9 8.7 10.0 10.0
7.2 7.5 9.0 9.0 9.0 7.4 7.1 7.4 6.6 6.6 8.1 8.8 9.5 8.8 7.3 8.0 7.7 7.9 7.7 8.3 9.2 8.6 9.2 8.2 6.8 6.7 6.7 7.0 5.5 3.0 nan nan 4.5 nan 5.1 8.3 10.6 9.8 8.2 9.5 9.2 10.4 9.8
Water_Equivalent
0.00 0.00 0.00 0.00 0.00 0.00 0.00 0.00 0.00 0.00 0.00 0.00 0.00 0.00 0.00 0.00 0.00 0.00 0.00 0.00 0.00 0.00 0.00 0.00 0.00 0.00 0.00 0.00 0.00 0.00 0.00 0.01 0.28 0.00 0.00 0.00 0.00 0.00 0.00 0.00 0.00 0.00 0.00
0.00 0.00 0.00 0.00 0.00 0.00 0.00 0.00 0.00 0.00 0.00 0.00 0.00 0.00 0.00 0.00 0.00 0.00 0.00 0.00 0.00 0.00 0.00 0.00 0.00 0.00 0.00 0.00 0.00 0.00 0.00 0.00 0.06 0.08 0.00 0.00 0.00 0.00 0.00 0.00 0.00 0.00 0.00
0.00 0.00 0.00 0.00 0.00 0.00 0.00 0.00 0.00 0.00 0.00 0.00 0.00 0.00 0.00 0.00 0.00 0.00 0.00 0.00 0.00 0.00 0.00 0.00 0.00 0.00 0.00 0.00 0.00 0.00 0.00 0.00 0.00 0.08 0.02 0.00 0.00 0.00 0.00 0.00 0.00 0.00 0.00
0.00 0.00 0.00 0.00 0.00 0.00 0.00 0.00 0.00 0.00 0.00 0.00 0.00 0.00 0.00 0.00 0.00 0.00 0.00 0.00 0.00 0.00 0.00 0.00 0.00 0.00 0.00 0.00 0.01 0.03 0.02 0.06 0.04 0.07 0.02 0.00 0.00 0.00 0.00 0.00 0.01 0.00 0.01
0.00 0.00 0.00 0.00 0.00 0.00 0.00 0.00 0.00 0.00 0.00 0.00 0.00 0.00 0.00 0.00 0.00 0.00 0.00 0.01 0.01 0.00 0.00 0.00 0.00 nan nan nan 0.00 0.02 0.05 0.06 0.05 0.10 0.06 0.02 0.01 0.00 0.00 0.00 0.04 0.04 0.01
0.00 0.00 0.00 0.00 0.00 0.00 0.00 0.00 0.00 0.00 0.00 0.00 0.00 0.00 0.00 0.00 nan nan 0.00 0.02 0.00 0.00 0.01 0.00 0.00 0.00 0.00 nan nan nan nan 0.04 0.20 0.19 0.12 0.07 0.01 0.00 0.00 0.02 0.14 0.29 0.78
0.00 0.00 0.00 0.00 0.00 0.00 0.00 0.00 0.00 0.00 0.00 0.00 0.00 0.00 0.00 0.00 nan nan nan 0.03 0.03 0.01 0.01 0.00 0.00 0.00 nan 0.00 nan nan nan nan nan 0.01 0.06 0.01 0.02 0.00 0.03 0.10 0.09 0.36 0.48
0.00 0.00 0.00 0.00 0.00 0.00 0.00 0.00 0.00 0.00 0.00 0.00 0.00 0.00 0.00 0.00 nan nan nan 0.03 0.01 0.00 0.00 0.00 0.00 0.00 0.00 0.00 0.00 0.03 0.02 0.00 0.00 0.00 0.00 0.00 0.01 0.01 0.04 0.06 0.10 0.09 0.04
0.00 0.00 0.00 0.00 0.00 0.00 0.00 0.00 0.00 0.00 0.00 0.00 0.00 0.00 0.00 0.00 nan nan 0.02 0.04 0.01 0.00 0.00 0.00 0.00 0.00 nan nan 0.02 0.04 0.01 0.00 nan nan nan nan nan nan nan 0.01 0.19 0.47 0.39
0.00 0.00 0.00 0.00 0.00 0.00 0.00 0.00 0.00 0.00 0.00 0.00 0.00 0.00 nan 0.00 nan nan nan 0.15 0.06 0.14 0.00 0.00 nan 0.00 nan nan 0.01 0.02 0.05 0.00 0.01 0.00 0.00 0.00 nan nan nan 0.00 0.09 0.91 0.99
0.00 0.00 0.01 0.01 0.01 0.01 0.00 0.00 0.01 0.01 0.01 0.01 0.01 0.00 0.00 0.00 0.00 nan nan 0.08 0.08 0.11 0.04 0.01 0.00 nan nan nan nan 0.01 0.02 0.00 0.02 0.03 0.02 0.01 0.01 0.02 0.05 0.02 0.01 0.15 0.87
0.01 0.02 0.02 0.02 0.01 0.01 0.02 0.03 0.02 0.02 0.09 0.06 0.06 0.05 0.01 0.00 nan nan nan nan nan 0.23 0.06 0.00 0.00 nan nan nan nan nan nan nan 0.13 0.18 0.18 0.18 0.15 0.14 0.12 0.07 0.00 0.02 0.04
0.03 0.04 0.03 0.02 0.02 0.05 0.07 0.05 0.16 0.06 0.24 0.23 0.17 0.16 0.11 0.00 0.01 nan nan nan nan 0.11 0.00 0.00 nan nan nan nan nan nan nan 0.09 0.27 0.40 0.27 0.30 0.25 0.19 0.06 0.15 0.04 0.03 0.02
0.08 0.08 0.07 0.09 0.12 0.09 0.09 0.12 0.31 0.30 0.40 0.24 0.28 0.34 0.26 0.17 0.09 0.09 0.11 0.13 nan 0.05 nan 0.09 nan 0.01 nan nan 0.09 0.13 0.10 0.06 0.20 0.29 0.37 0.22 0.20 0.48 0.38 0.23 0.56 0.39 1.10
0.15 0.23 0.33 0.28 0.26 0.32 0.29 0.46 0.64 0.27 0.55 1.29 0.61 0.53 0.60 0.51 0.29 0.18 0.51 0.33 0.20 0.15 nan 0.40 0.47 0.35 0.36 0.42 0.31 0.19 0.18 0.18 0.35 0.33 0.43 0.45 0.32 0.39 0.45 0.42 0.60 0.81 1.41
0.61 0.59 0.62 0.73 0.68 0.66 0.84 1.18 nan nan nan nan nan 0.65 0.59 nan nan nan nan nan nan nan 1.22 1.03 0.91 0.81 0.70 0.58 0.43 0.44 0.34 0.33 0.33 0.51 0.67 0.70 0.88 0.91 0.95 0.98 0.88 1.06 1.75
0.84 0.85 0.91 0.79 0.88 0.96 1.05 0.81 1.12 0.68 nan nan nan nan nan nan nan nan nan nan nan nan 1.01 0.95 1.01 0.82 0.88 0.88 0.79 0.62 0.69 0.41 0.18 0.83 1.38 1.56 1.67 1.61 1.51 1.28 1.27 1.27 1.70
0.81 nan 0.85 0.88 0.87 1.01 1.01 0.93 0.73 0.79 1.09 1.14 nan nan nan nan nan nan nan nan 0.66 nan 0.72 0.79 0.97 0.98 0.97 0.99 0.93 0.89 0.78 0.77 1.04 1.30 1.75 2.12 2.34 2.53 2.19 2.03 1.60 2.05 2.08
0.64 0.81 0.85 0.92 0.89 0.95 1.02 1.01 0.92 0.99 0.97 0.98 0.86 0.58 nan nan nan nan nan 0.64 0.67 0.64 0.74 0.89 0.81 0.97 0.98 0.92 0.92 1.26 1.18 1.21 1.45 2.08 1.92 2.31 2.18 2.67 2.17 1.73 1.67 1.17 nan
0.63 nan 0.80 0.93 0.87 0.94 0.99 0.99 1.13 1.04 1.08 0.81 0.81 0.83 0.93 0.73 0.69 0.59 0.55 0.64 0.77 0.70 0.77 0.80 0.67 0.78 0.91 1.01 1.19 1.13 1.38 1.44 1.38 1.42 1.36 1.81 1.70 2.12 2.23 1.73 1.33 1.94 1.46
0.53 0.65 nan 0.70 0.86 0.91 0.92 0.98 0.86 0.94 0.99 0.97 0.98 0.63 nan 0.86 1.15 0.81 0.72 0.78 0.78 0.78 1.00 0.87 0.80 0.83 0.97 1.19 1.25 1.27 1.15 1.25 1.14 1.44 1.72 1.74 1.81 2.30 1.19 1.30 1.38 1.37 1.46
0.43 0.52 0.67 0.82 0.75 0.84 0.92 0.83 0.92 0.95 0.99 1.15 1.10 0.74 nan 0.85 0.76 0.79 0.80 0.80 0.79 0.78 0.92 1.12 1.04 0.98 1.21 1.74 1.69 1.94 1.76 1.77 1.71 2.04 1.90 1.79 1.69 1.47 1.28 1.39 1.42 1.53 1.62
0.59 0.78 0.89 1.01 0.89 nan 0.83 0.76 0.89 0.89 1.00 0.98 0.89 0.85 0.95 0.74 0.73 0.79 0.81 0.78 0.79 0.94 0.88 1.07 1.28 1.29 0.98 1.38 1.67 2.19 2.47 1.71 1.56 1.70 2.46 1.80 1.55 1.39 1.40 1.74 1.48 1.59 1.27
0.74 0.90 0.95 0.91 0.83 0.93 0.84 0.94 0.88 nan 0.96 1.06 0.94 0.93 0.89 0.76 0.84 0.84 0.87 1.07 0.91 1.18 0.93 1.15 1.19 1.18 1.15 1.47 1.15 1.23 1.43 1.49 1.57 1.90 2.18 2.91 2.30 1.50 1.49 1.58 1.42 1.39 1.47
0.83 1.07 1.23 1.17 1.09 1.04 1.00 0.81 0.83 0.89 1.03 0.94 1.10 0.94 0.83 0.83 0.91 1.01 0.99 1.11 1.18 1.21 0.97 0.98 1.16 1.22 1.21 1.31 1.22 1.09 1.02 nan 1.51 0.84 1.91 1.91 1.94 1.62 1.68 1.53 1.34 1.48 1.37
1.07 1.12 1.38 1.42 1.32 1.08 1.00 1.07 0.99 0.99 1.19 1.37 1.39 1.29 1.03 1.10 1.04 1.15 1.07 1.15 1.29 1.25 1.35 1.26 1.10 1.09 1.12 1.39 0.99 0.85 nan nan 1.01 nan 1.28 2.08 2.09 1.65 1.39 1.50 1.39 1.51 1.39
SL_Ratio
nan nan nan nan nan nan nan nan nan nan nan nan nan nan nan nan nan nan nan nan nan nan nan nan nan nan nan nan nan nan nan 6.1 8.0 6.4 nan nan nan nan nan nan nan nan nan
nan nan nan nan nan nan nan nan nan nan nan nan nan nan nan nan nan nan nan nan nan nan nan nan nan nan nan nan nan nan nan nan 6.5 7.7 nan nan nan nan nan nan nan nan nan
nan nan nan nan nan nan nan nan nan nan nan nan nan nan nan nan nan nan nan nan nan nan nan nan nan nan nan nan nan nan nan nan nan 6.3 6.2 nan nan nan nan nan nan nan nan
nan nan nan nan nan nan nan nan nan nan nan nan nan nan nan nan nan nan nan nan nan nan nan nan nan nan nan nan 5.7 5.9 5.5 5.9 5.7 6.0 5.8 5.0 nan nan nan 5.0 4.7 nan 3.9
nan nan nan nan nan nan nan nan nan nan nan nan nan nan nan nan nan nan 2.5 4.5 4.6 5.0 nan nan nan nan nan nan 5.0 4.8 5.6 5.8 5.9 6.0 5.9 5.8 5.0 5.0 nan 5.0 4.9 4.4 3.8
nan nan nan nan nan nan nan nan nan nan nan nan nan nan nan nan nan nan nan 4.0 4.3 4.0 4.5 nan nan nan nan nan nan nan nan 4.8 6.3 6.0 5.8 6.4 5.5 nan 0.0 5.7 4.7 4.8 5.9
nan nan nan nan nan nan nan nan nan nan nan nan nan nan nan nan nan nan nan 3.4 4.4 4.2 4.1 5.0 nan nan nan nan nan nan nan nan nan 5.0 6.0 5.6 6.2 nan 5.0 5.8 5.6 5.6 5.5
nan nan nan nan nan nan nan nan nan nan nan nan nan nan nan nan nan nan nan 3.9 4.2 nan nan nan nan nan nan nan 5.0 5.2 5.4 5.0 nan nan 5.0 6.0 4.3 4.6 5.2 5.8 6.0 5.0 3.3
nan nan nan nan nan nan nan nan nan nan nan nan nan 2.5 5.0 nan nan nan 3.6 4.1 3.6 3.8 nan nan nan nan nan nan 4.1 5.3 4.4 nan nan nan nan nan nan nan nan 4.5 4.2 4.8 5.3
nan nan nan nan nan nan nan nan nan 2.5 5.0 5.0 nan 0.0 nan 5.0 nan nan nan 3.9 4.1 2.5 2.1 nan nan nan nan nan 3.9 5.2 5.3 5.0 6.3 6.7 5.0 nan nan nan nan nan 3.7 5.2 5.3
nan 5.0 5.0 4.5 4.8 4.5 4.2 4.3 4.7 5.0 4.1 4.0 4.4 1.7 0.0 nan 5.0 nan nan 3.6 4.2 4.4 4.4 4.6 nan nan nan nan nan 4.4 5.0 4.0 4.7 3.6 3.3 3.5 2.5 2.5 2.5 2.6 2.6 3.7 4.9
5.2 4.8 4.6 4.3 3.9 3.8 5.2 6.4 5.4 5.6 6.5 4.4 4.5 3.1 2.7 nan nan nan nan nan nan 4.7 4.4 nan nan nan nan nan nan nan nan nan 3.6 3.7 3.1 2.7 2.9 2.7 2.8 2.5 3.3 2.9 3.1
5.7 5.6 5.1 4.2 5.0 6.4 7.6 7.6 6.2 5.2 5.0 5.1 4.9 4.7 3.6 5.0 5.0 nan nan nan nan 4.0 5.0 nan nan nan nan nan nan nan nan 3.5 4.1 4.8 4.5 3.9 3.6 3.5 3.3 3.2 3.4 3.3 3.1
6.6 6.4 7.4 8.0 8.2 7.6 7.0 6.7 6.0 5.2 5.8 5.3 5.7 6.2 5.5 5.1 5.8 5.5 5.3 4.7 nan 5.2 nan 4.7 nan 3.6 nan nan 3.3 3.4 3.4 3.7 4.4 4.6 4.7 4.7 4.0 3.1 3.7 3.1 3.7 3.4 4.9
7.8 7.6 7.4 7.1 7.1 6.8 6.2 6.3 7.1 7.1 7.3 7.4 7.0 6.6 6.7 6.2 5.4 5.1 4.9 4.9 5.1 5.4 nan 4.6 4.3 4.3 4.5 4.3 4.0 3.7 3.6 3.7 4.0 4.2 4.6 4.7 4.6 3.8 4.2 3.5 3.7 3.8 5.3
8.4 7.8 7.5 7.0 6.8 6.5 6.0 5.7 nan nan nan nan nan 6.2 5.7 nan nan nan nan nan nan nan 5.1 5.5 5.9 5.6 5.7 5.1 5.3 4.6 4.1 4.0 3.8 3.8 4.1 4.4 4.8 4.7 4.9 4.4 4.0 4.5 5.5
8.2 8.2 7.7 7.3 7.1 6.9 6.3 6.9 7.2 6.2 nan nan nan nan nan nan nan nan nan nan nan nan 6.7 7.0 7.0 6.0 5.9 5.7 5.2 4.6 4.8 4.1 4.1 3.8 4.0 4.2 4.3 4.5 4.3 5.1 5.0 4.9 5.5
8.0 nan 7.7 7.7 7.4 6.9 6.5 6.7 6.5 6.8 7.0 6.3 nan nan nan nan nan nan nan nan 6.9 nan 7.1 7.3 7.1 7.0 6.5 5.9 5.5 5.0 4.6 4.1 4.0 4.0 3.9 3.9 4.1 4.6 5.1 5.5 5.3 5.7 6.0
8.4 8.1 7.9 7.6 7.2 7.1 6.6 6.4 6.5 6.5 6.4 6.3 6.4 6.6 nan nan nan nan nan 6.7 7.6 7.8 7.6 7.0 6.9 6.7 6.6 6.1 5.4 4.9 4.3 4.3 4.2 4.2 4.1 4.4 4.3 4.5 5.1 5.1 5.3 5.5 nan
8.4 nan 7.7 7.6 7.5 7.1 6.8 7.1 7.1 6.8 6.6 6.5 6.6 6.7 6.8 6.4 6.4 7.0 7.1 7.3 7.6 7.6 7.6 7.2 6.8 6.5 6.3 5.8 5.4 5.0 4.8 4.3 4.5 4.3 4.6 4.5 4.6 4.7 5.0 5.6 5.4 5.4 6.4
8.3 8.0 nan 7.6 7.6 7.7 7.5 7.7 7.5 7.0 6.9 7.1 7.2 7.2 nan 6.4 6.9 7.8 8.2 8.0 7.9 7.7 7.3 7.2 6.8 6.3 6.0 5.9 5.7 5.8 5.4 4.7 4.4 4.3 4.4 4.5 4.8 5.6 5.2 5.0 5.0 5.2 6.3
8.6 8.3 8.2 7.9 7.7 7.7 8.1 7.2 7.2 7.2 7.1 7.0 6.6 6.7 nan 6.7 7.4 7.8 7.9 8.0 7.9 7.6 7.1 6.9 6.7 6.4 6.1 5.8 5.6 5.3 5.3 4.9 4.3 4.2 4.5 4.9 4.9 5.3 5.1 5.0 5.5 6.3 6.4
7.6 7.1 7.2 7.6 7.7 nan 7.5 7.6 7.6 7.3 7.0 6.4 6.3 6.7 6.4 7.1 7.5 7.7 8.1 8.1 7.8 7.2 7.2 7.0 6.7 6.2 6.1 5.7 4.9 4.8 5.0 5.0 4.5 4.4 4.9 5.3 5.8 5.1 4.8 5.6 6.2 6.7 7.2
7.0 7.0 7.1 7.4 7.8 7.8 7.6 7.7 7.3 nan 6.1 6.3 6.5 6.7 7.0 7.4 7.6 8.0 7.5 6.9 7.2 6.6 7.1 7.0 6.9 6.7 6.5 5.7 5.3 5.0 5.0 4.7 4.9 4.7 4.2 4.7 5.0 4.6 5.3 6.4 6.5 7.1 7.3
7.0 7.0 6.7 7.0 7.2 7.4 7.3 7.3 7.3 6.4 6.3 6.5 6.6 7.3 7.4 7.4 7.4 7.0 7.0 6.9 7.0 6.9 7.0 6.9 6.5 6.4 6.1 6.1 6.2 5.6 5.0 nan 3.9 3.0 3.9 4.0 4.4 5.3 6.1 6.4 6.5 6.8 7.3
6.7 6.7 6.5 6.3 6.8 6.9 7.0 6.9 6.7 6.6 6.8 6.4 6.8 6.8 7.1 7.3 7.4 6.9 7.2 7.3 7.1 6.9 6.8 6.5 6.2 6.1 6.0 5.1 5.5 3.6 nan nan 4.4 nan 3.9 4.0 5.1 6.0 5.9 6.4 6.6 6.9 7.1